This is the latest recevied weather packets stored in our database for station/object KJ7HSW. If no packets are shown the sender has not sent any weather packets the latest 10 day(s).
| Time | Temp. | Humidity | Pressure | Rain* | Wind** | Luminosity | Snow |
|---|---|---|---|---|---|---|---|
| 1777154333 | 20° C | 16% | 1010 hPa | 0 mm | - | 721 W/m² | - |
| 1777154028 | 20° C | 15% | 1010.2 hPa | 0 mm | - | 730 W/m² | - |
| 1777153724 | 20° C | 20% | 1010.1 hPa | 0 mm | - | 737 W/m² | - |
| 1777153420 | 20° C | 16% | 1010.1 hPa | 0 mm | - | 746 W/m² | - |
| 1777153116 | 20° C | 16% | 1010.3 hPa | 0 mm | - | 754 W/m² | - |
| 1777152813 | 19.44° C | 18% | 1010.3 hPa | 0 mm | - | 760 W/m² | - |
| 1777152510 | 19.44° C | 19% | 1010.4 hPa | 0 mm | - | 767 W/m² | - |
| 1777152206 | 20° C | 18% | 1010.6 hPa | 0 mm | - | 775 W/m² | - |
| 1777151901 | 20° C | 18% | 1010.6 hPa | 0 mm | - | 778 W/m² | - |
| 1777151598 | 18.89° C | 17% | 1010.6 hPa | 0 mm | - | 784 W/m² | - |
| 1777151295 | 18.89° C | 18% | 1010.8 hPa | 0 mm | - | 787 W/m² | - |
| 1777150989 | 18.89° C | 17% | 1010.8 hPa | 0 mm | - | 793 W/m² | - |
| 1777150683 | 18.89° C | 19% | 1010.7 hPa | 0 mm | - | 797 W/m² | - |
| 1777150380 | 18.89° C | 15% | 1010.9 hPa | 0 mm | - | 799 W/m² | - |
| 1777150076 | 18.89° C | 17% | 1010.9 hPa | 0 mm | - | 804 W/m² | - |
| 1777149772 | 18.33° C | 17% | 1011 hPa | 0 mm | - | 808 W/m² | - |
| 1777149469 | 18.33° C | 16% | 1011.1 hPa | 0 mm | - | 811 W/m² | - |
| 1777149166 | 18.89° C | 16% | 1011.3 hPa | 0 mm | - | 814 W/m² | - |
| 1777148865 | 18.33° C | 18% | 1011 hPa | 0 mm | - | 816 W/m² | - |
| 1777148563 | 17.78° C | 16% | 1011.1 hPa | 0 mm | - | 816 W/m² | - |
| 1777148258 | 18.33° C | 17% | 1011.2 hPa | 0 mm | - | 818 W/m² | - |
| 1777147955 | 18.33° C | 17% | 1011.2 hPa | 0 mm | - | 822 W/m² | - |
| 1777147650 | 17.78° C | 21% | 1011.4 hPa | 0 mm | - | 824 W/m² | - |
| 1777147346 | 17.78° C | 21% | 1011.4 hPa | 0 mm | - | 828 W/m² | - |
| 1777147042 | 17.78° C | 16% | 1011.4 hPa | 0 mm | - | 829 W/m² | - |
* Rain latest hour (hover to see other rain measurements)
** Current wind speed in m/s (hover to see current wind gust speed)